This is the latest recevied weather packets stored in our database for station/object KI7CSN-13. If no packets are shown the sender has not sent any weather packets the latest 10 day(s).
| Time | Temp. | Humidity | Pressure | Rain* | Wind** | Luminosity | Snow |
|---|---|---|---|---|---|---|---|
| 1777500776 | 24.44° C | 10% | 982.8 hPa | 0 mm | - | - | - |
| 1777500477 | 25° C | 15% | 982.8 hPa | 0 mm | - | - | - |
| 1777500177 | 25° C | 15% | 982.8 hPa | 0 mm | - | - | - |
| 1777499877 | 24.44° C | 15% | 982.9 hPa | 0 mm | - | - | - |
| 1777499576 | 25.56° C | 15% | 982.9 hPa | 0 mm | - | - | - |
| 1777499277 | 23.89° C | 16% | 982.8 hPa | 0 mm | - | - | - |
| 1777498976 | 25° C | 15% | 983 hPa | 0 mm | - | - | - |
| 1777498677 | 24.44° C | 15% | 983.1 hPa | 0 mm | - | - | - |
| 1777498377 | 24.44° C | 15% | 983.1 hPa | 0 mm | - | - | - |
| 1777498077 | 24.44° C | 15% | 983.1 hPa | 0 mm | - | - | - |
| 1777497777 | 25° C | 15% | 983 hPa | 0 mm | - | - | - |
| 1777497477 | 25° C | 15% | 983 hPa | 0 mm | - | - | - |
| 1777497177 | 25.56° C | 15% | 983.1 hPa | 0 mm | - | - | - |
| 1777496877 | 24.44° C | 16% | 983.1 hPa | 0 mm | - | - | - |
| 1777496577 | 24.44° C | 15% | 983.2 hPa | 0 mm | - | - | - |
| 1777496277 | 25° C | 16% | 983.3 hPa | 0 mm | - | - | - |
| 1777495977 | 25° C | 15% | 983.2 hPa | 0 mm | - | - | - |
| 1777495677 | 24.44° C | 15% | 983.2 hPa | 0 mm | - | - | - |
| 1777495377 | 23.89° C | 15% | 983.3 hPa | 0 mm | - | - | - |
| 1777495077 | 25° C | 14% | 983.4 hPa | 0 mm | - | - | - |
| 1777494777 | 25° C | 15% | 983.4 hPa | 0 mm | - | - | - |
| 1777494477 | 24.44° C | 15% | 983.5 hPa | 0 mm | - | - | - |
| 1777494177 | 24.44° C | 16% | 983.4 hPa | 0 mm | - | - | - |
| 1777493877 | 24.44° C | 16% | 983.7 hPa | 0 mm | - | - | - |
| 1777493577 | 24.44° C | 15% | 983.5 hPa | 0 mm | - | - | - |
* Rain latest hour (hover to see other rain measurements)
** Current wind speed in m/s (hover to see current wind gust speed)